EW0674 Weather Reports


Display with metric or nautical units.
time (UTC)temp
F
wind
direction
speed
MPH
gust
MPH
rain 1hr
in
rain 24hr
in
rain mn
in
humidity
%
barometer
mb
20200329161544 47 122 0.0 0.0 0.00 0.01 0.00 91 1016.7
20200329160014 47 40 0.0 0.0 0.00 0.01 0.00 91 1016.6
20200329153033 46 82 0.0 3.0 0.00 0.01 0.00 92 1016.6
20200329151503 46 46 0.0 1.0 0.00 0.01 0.00 92 1016.5
20200329150207 46 46 0.0 1.0 0.00 0.01 0.00 92 1016.5
20200329143119 45 46 0.0 0.0 0.00 0.01 0.00 92 1016.2
20200329141710 45 46 0.0 0.0 0.00 0.01 0.00 92 1016.2
20200329140248 45 46 0.0 1.0 0.00 0.01 0.00 92 1015.9
20200329133123 45 46 0.0 0.0 0.00 0.01 0.00 92 1015.7
20200329131647 45 46 0.0 0.0 0.00 0.01 0.00 91 1015.5
20200329130158 45 46 0.0 2.0 0.00 0.01 0.00 92 1015.5
20200329123153 45 46 0.0 2.0 0.00 0.01 0.00 92 1015.7
20200329121628 45 46 0.0 0.0 0.00 0.01 0.00 92 1015.8
20200329120138 45 46 0.0 0.0 0.00 0.01 0.00 92 1015.7
20200329113154 45 46 0.0 3.0 0.00 0.01 0.00 91 1015.6
20200329111647 45 46 0.0 3.0 0.00 0.01 0.00 91 1015.4
20200329110103 45 46 0.0 3.0 0.00 0.01 0.00 90 1015.5
20200329103237 45 50 0.0 1.0 0.00 0.01 0.00 90 1015.8
20200329101649 45 50 0.0 3.0 0.00 0.01 0.00 90 1016.0
20200329100115 45 132 0.0 0.0 0.00 0.01 0.00 90 1016.2
20200329093156 45 132 0.0 2.0 0.00 0.01 0.00 90 1016.4
20200329090154 46 209 0.0 0.0 0.00 0.01 0.00 89 1016.6
20200329083106 46 209 0.0 1.0 0.00 0.01 0.00 89 1016.7
20200329081633 45 209 0.0 0.0 0.00 0.01 0.00 89 1016.7
20200329073037 45 209 0.0 0.0 0.00 0.01 0.01 88 1016.7
20200329071534 45 209 0.0 2.0 0.00 0.01 0.01 87 1016.7
20200329070115 46 209 0.0 0.0 0.00 0.01 0.01 87 1016.7
20200329063046 46 209 0.0 1.0 0.00 0.01 0.01 86 1016.8
20200329061606 46 209 0.0 0.0 0.00 0.01 0.01 86 1016.8
20200329060132 46 209 0.0 1.0 0.00 0.01 0.01 86 1016.8
20200329053054 46 192 0.0 3.0 0.00 0.01 0.01 86 1016.9
20200329051558 46 169 0.0 1.0 0.00 0.01 0.01 87 1016.9
20200329050129 46 169 0.0 0.0 0.00 0.01 0.01 87 1017.0
20200329043034 47 171 0.0 0.0 0.01 0.01 0.01 87 1016.9
20200329033037 47 246 0.0 2.0 0.00 0.00 0.00 86 1016.5
20200329031616 47 259 0.0 2.0 0.00 0.00 0.00 85 1016.4
20200329030046 48 200 0.0 4.0 0.00 0.00 0.00 84 1016.5
20200329023051 49 190 1.0 7.0 0.00 0.00 0.00 81 1016.5
20200329021541 49 267 0.0 4.0 0.00 0.00 0.00 80 1016.5
20200329020116 49 188 1.0 4.0 0.00 0.00 0.00 78 1016.5
20200329013101 50 204 7.0 12.0 0.00 0.00 0.00 78 1016.5
20200329011612 50 214 6.0 11.0 0.00 0.00 0.00 77 1016.5
20200329010050 50 211 5.0 15.0 0.00 0.00 0.00 76 1016.5
20200329003042 51 186 2.0 6.0 0.00 0.00 0.00 74 1016.6
20200329001516 52 165 2.0 6.0 0.00 0.00 0.00 72 1016.6
20200329000017 52 169 3.0 9.0 0.00 0.00 0.00 71 1016.7
20200328233010 52 161 2.0 7.0 0.00 0.00 0.00 69 1016.8
20200328231530 53 186 2.0 7.0 0.00 0.00 0.00 69 1016.8
20200328230017 53 169 2.0 7.0 0.00 0.00 0.00 70 1016.9
20200328223208 52 178 3.0 7.0 0.00 0.00 0.00 70 1017.1
20200328221656 51 190 2.0 7.0 0.00 0.00 0.00 73 1017.4
20200328220143 51 167 1.0 5.0 0.00 0.00 0.00 76 1017.6
20200328213220 50 258 0.0 4.0 0.00 0.00 0.00 75 1018.0
20200328211610 50 348 0.0 3.0 0.00 0.00 0.00 76 1018.1
20200328210117 50 278 0.0 3.0 0.00 0.00 0.00 73 1018.4
20200328203056 50 178 1.0 4.0 0.00 0.00 0.00 76 1018.6
20200328201604 50 167 0.0 3.0 0.00 0.00 0.00 74 1018.7
20200328200100 50 269 1.0 3.0 0.00 0.00 0.00 74 1018.9
20200328193103 50 268 2.0 5.0 0.00 0.00 0.00 74 1019.1
20200328191609 50 266 2.0 5.0 0.00 0.00 0.00 73 1019.2
20200328190127 50 160 0.0 5.0 0.00 0.00 0.00 68 1019.2
20200328183124 49 148 1.0 3.0 0.00 0.00 0.00 72 1019.4
20200328181609 49 220 1.0 4.0 0.00 0.00 0.00 75 1019.5
20200328180102 49 111 1.0 6.0 0.00 0.00 0.00 75 1019.4
20200328173125 47 207 0.0 3.0 0.00 0.00 0.00 80 1019.6
20200328171531 47 178 0.0 4.0 0.00 0.00 0.00 80 1019.7
20200328170022 46 158 1.0 3.0 0.00 0.00 0.00 82 1019.6
20200328163017 45 129 0.0 0.0 0.00 0.00 0.00 86 1019.4